sat.trackr.live / text

‹ back to catalog

STARLINK-11498 [DTC]

NORAD 62276 · 2024-237K

PAYLOAD ACTIVE UNKNOWN

§ Identity

Operator
Country
US
Launch date
2024-12-08
Launch site
AFETR
Launch vehicle
Mass (kg)
RCS (m²)

Purposes: comms

External: N2YO · Heavens-Above · Gunter

§ Orbital elements

Epoch: 2026-05-25T04:28:38.676864Z

Period
91.67 min
Inclination
42.9982°
Eccentricity
0.0000834
Mean motion
15.70931325 rev/d
Perigee alt
355.7 km
Apogee alt
356.8 km
Semi-major
6,734.4 km
B*
2.2342e-3
RAAN
315.4746°
Arg perigee
327.9897°
Mean anomaly
32.0919°
Rev number
8,508

§ Raw data

STARLINK-11498 [DTC]1 62276U 24237K   26145.18655876  .00297898  00000+0  22342-2 0  99922 62276  42.9982 315.4746 0000834 327.9897  32.0919 15.70931325 85080

JSON: /api/v1/satellites/62276 · /tle

For live sub-satellite position, see the globe view (requires WebGL).

§ Visibility from observer

Set your observer location to see the next 7 days of passes ≥ 10°. The values pass through the URL so the page stays shareable.

No JS? Fill the form by hand. The geolocation button needs JavaScript.